Location: Pl�tzky
(52.0521°N, 11.8020°E)
Time: 10:52:29
(UTC+00:00)

Cosmos 2112 Rocket - Pass Details

Date: 22 November 2019
Orbit: 755 x 788 km, 74.1° (Epoch: 09 December)

Event Time Altitude Azimuth Distance (km) Brightness Sun altitude
Rises 16:07:34 0° 180° (S) 3,205 7.5 -8.3°
Reaches altitude 10° 16:10:02 10° 173° (S) 2,288 6.7 -8.6°
Maximum altitude 16:14:51 41° 105° (ESE) 1,110 4.5 -9.3°
Drops below altitude 10° 16:19:45 10° 37° (NE) 2,322 6.0 -10.0°
Enters shadow 16:20:29 - 34° (NE) 2,592 6.3 -10.1°
